Location: Asheville, NC
(35.6000°N, 82.5500°W)
Time: 16:15:35
(UTC-05:00)

Vanguard 2 Rocket - Pass Details

Date: 17 February 2018
Orbit: 555 x 3327 km, 32.9° (Epoch: 21 February)

Event Time Altitude Azimuth Distance (km) Brightness Sun altitude
Rises 07:23:29 0° 284° (WNW) 7,317 10.8 0.9°
Reaches altitude 10° 07:29:31 10° 276° (W) 6,240 10.5 2.1°
Maximum altitude 07:44:27 29° 226° (SW) 4,219 10.1 5.0°
Drops below altitude 10° 07:55:48 10° 172° (S) 4,661 11.0 7.2°
Sets 07:59:33 0° 161° (SSE) 5,270 11.4 7.9°
